Location: Ellingshausen
(50.5460°N, 10.4723°E)
Time: 20:24:35
(UTC+00:00)

Cosmos 1470 Rocket - Pass Details

Date: 18 January 2026
Orbit: 598 x 626 km, 82.5° (Epoch: 15 February)

Event Time Altitude Azimuth Distance (km) Brightness Sun altitude
Rises 05:50:38 0° 187° (S) 2,839 7.1 -12.3°
Reaches altitude 10° 05:52:50 10° 187° (S) 1,938 6.2 -12.0°
Maximum altitude 05:57:07 87° 101° (E) 607 3.5 -11.3°
Drops below altitude 10° 06:01:26 10° 11° (N) 1,949 6.0 -10.7°
Sets 06:03:39 0° 11° (N) 2,857 6.9 -10.4°
